Total_Precipitation_Accumulation
0.01 0.00 0.00 0.03 0.02 0.00 0.00 0.00 0.00 0.00 0.02 0.03 0.01 0.02 0.08 0.17 0.18 0.32 0.17 0.17 0.14 0.09 0.16 0.29 0.56 0.49 0.40 0.32 0.25 0.25 0.33 0.53 0.75 0.89 0.96 0.80 0.43 0.32 0.28 0.31 0.26 0.25 0.37 0.44 0.36 0.56 0.67 0.43 0.25
0.00 0.01 0.05 0.11 0.03 0.00 0.00 0.00 0.00 0.00 0.00 0.00 0.03 0.08 0.17 0.38 0.22 0.18 0.23 0.13 0.08 0.08 0.18 0.19 0.62 0.62 0.41 0.30 0.26 0.23 0.34 0.44 0.53 0.76 0.93 0.99 0.70 0.55 0.41 0.33 0.23 0.26 0.36 0.44 0.21 0.46 0.69 0.39 0.27
0.07 0.15 0.20 0.10 0.02 0.00 0.00 0.00 0.00 0.00 0.00 0.03 0.07 0.06 0.27 0.46 0.19 0.15 0.11 0.07 0.09 0.09 0.18 0.29 0.76 0.88 0.62 0.36 0.25 0.32 0.37 0.45 0.44 0.54 0.86 1.14 1.19 0.83 0.88 0.51 0.26 0.33 0.40 0.47 0.15 0.42 0.55 0.39 0.27
0.07 0.41 0.30 0.10 0.03 0.00 0.00 0.00 0.00 0.00 0.00 0.01 0.01 0.04 0.34 0.82 0.57 0.30 0.14 0.06 0.16 0.24 0.31 0.59 0.72 1.01 0.86 0.57 0.44 0.37 0.40 0.54 0.56 0.58 0.83 1.11 1.52 1.52 1.25 0.70 0.31 0.27 0.27 0.31 0.17 0.26 0.33 0.26 0.21
0.22 0.41 0.21 0.10 0.02 0.00 0.00 0.00 0.00 0.00 0.00 0.00 0.01 0.03 0.23 0.60 0.60 0.61 0.50 0.17 0.24 0.52 0.59 0.59 0.91 0.78 0.81 0.75 0.59 0.48 0.48 0.55 0.56 0.66 0.85 0.96 0.89 1.41 1.37 0.93 0.39 0.23 0.30 0.50 0.43 0.21 0.29 0.21 0.21
0.42 0.41 0.15 0.06 0.00 0.00 0.00 0.00 0.00 0.00 0.00 0.00 0.00 0.02 0.13 0.32 0.70 1.09 1.25 0.79 0.62 0.73 0.82 0.94 1.07 1.10 0.81 0.77 0.74 0.49 0.50 0.58 0.62 0.66 0.97 1.09 0.75 0.85 1.00 0.86 0.41 0.26 0.32 0.68 0.62 0.37 0.27 0.25 0.29
0.34 0.28 0.13 0.01 0.00 0.00 0.01 0.02 0.01 0.00 0.00 0.00 0.00 0.07 0.20 0.31 0.49 0.93 1.98 2.02 1.35 1.17 1.32 1.17 1.18 1.11 0.78 0.77 0.77 0.75 0.58 0.56 0.47 0.52 0.82 0.90 0.67 0.58 0.58 0.66 0.49 0.46 0.49 0.60 0.66 0.62 0.44 0.37 0.42
0.31 0.37 0.16 0.04 0.00 0.01 0.00 0.03 0.02 0.00 0.00 0.01 0.02 0.12 0.19 0.10 0.36 0.79 1.76 3.05 2.35 1.64 1.84 2.08 2.04 1.68 1.04 0.98 0.72 0.59 0.57 0.55 0.47 0.55 0.75 0.61 0.51 0.35 0.40 0.28 0.34 0.58 0.56 0.63 0.73 0.65 0.65 0.59 0.59
0.70 0.92 0.44 0.10 0.04 0.04 0.00 0.00 0.02 0.01 0.00 0.01 0.01 0.05 0.04 0.11 0.64 0.78 1.65 2.65 3.05 2.11 1.88 2.05 2.26 1.64 1.45 1.09 1.07 0.73 0.56 0.46 0.38 0.48 0.61 0.38 0.32 0.24 0.18 0.12 0.11 0.26 0.47 0.51 0.66 0.75 0.62 0.38 0.39
1.09 0.91 0.30 0.07 0.07 0.07 0.02 0.00 0.01 0.01 0.02 0.06 0.14 0.13 0.08 0.21 0.65 0.73 0.99 1.72 2.58 2.03 2.06 2.47 2.04 2.16 1.50 1.35 1.63 1.27 1.03 0.65 0.46 0.40 0.50 0.42 0.50 0.38 0.29 0.33 0.25 0.31 0.36 0.37 0.51 0.64 0.50 0.31 0.27
0.78 0.46 0.05 0.04 0.17 0.25 0.15 0.02 0.02 0.02 0.05 0.01 0.07 0.16 0.30 0.58 0.78 0.78 0.48 0.58 1.27 1.96 1.72 1.75 1.90 2.48 1.81 1.58 1.43 1.28 1.04 0.85 0.82 0.91 1.16 1.03 0.75 0.49 0.43 0.46 0.35 0.42 0.36 0.31 0.36 0.29 0.14 0.13 0.20
0.45 0.12 0.10 0.15 0.19 0.31 0.21 0.12 0.11 0.09 0.02 0.01 0.05 0.21 0.41 0.59 1.00 1.00 0.68 0.59 0.66 0.98 1.77 2.06 1.81 2.07 2.05 1.93 1.61 1.26 1.05 0.97 0.85 0.81 0.96 1.31 1.05 0.64 0.47 0.49 0.48 0.52 0.46 0.49 0.48 0.35 0.16 0.12 0.12
0.31 0.19 0.19 0.27 0.27 0.20 0.22 0.36 0.14 0.05 0.03 0.04 0.11 0.28 0.36 0.55 0.76 0.90 1.08 0.80 0.74 0.68 1.03 1.21 1.68 2.08 2.16 1.70 1.80 1.56 0.92 0.77 0.87 0.91 0.85 1.02 1.30 1.05 0.84 0.91 0.81 0.81 0.69 0.53 0.59 0.69 0.61 0.42 0.37
0.10 0.35 0.43 0.54 0.43 0.50 0.39 0.32 0.30 0.08 0.07 0.18 0.26 0.32 0.25 0.32 0.63 0.79 0.90 0.80 0.74 0.76 0.83 0.82 0.87 1.47 1.99 1.53 0.98 1.70 1.99 1.13 0.56 0.69 0.80 0.90 1.29 1.77 2.72 2.87 2.70 2.24 2.11 2.07 1.83 1.41 1.29 1.26 0.95
0.18 0.54 0.72 0.68 0.60 0.55 0.63 0.52 0.36 0.15 0.13 0.20 0.29 0.42 0.54 0.34 0.44 0.67 1.00 0.77 0.64 0.76 0.82 0.58 0.61 0.70 1.07 1.82 1.18 0.97 1.39 1.84 1.11 0.48 0.53 0.68 1.00 1.32 1.42 2.35 2.27 1.85 1.66 1.71 1.69 1.79 1.54 1.32 1.07
0.32 0.55 0.90 0.57 0.75 0.71 0.89 0.58 0.16 0.23 0.23 0.21 0.22 0.33 0.58 0.50 0.34 0.46 0.75 1.16 0.82 0.88 0.77 0.82 0.59 0.54 0.64 0.68 1.37 1.76 1.26 1.32 1.23 0.75 0.44 0.39 0.48 0.80 1.19 1.03 0.80 0.82 0.85 0.89 0.84 0.91 1.02 0.98 0.87
0.44 0.39 0.51 0.63 0.66 0.93 0.90 0.55 0.34 0.20 0.20 0.14 0.19 0.17 0.26 0.67 0.69 0.67 0.52 0.55 0.97 1.07 1.19 1.15 1.17 0.94 0.73 0.89 1.09 1.47 2.23 1.74 1.26 1.04 0.54 0.47 0.46 0.39 0.54 0.72 0.77 0.72 0.69 0.62 0.61 0.75 0.78 0.83 0.72
0.30 0.25 0.30 0.51 0.46 0.90 0.77 0.65 0.56 0.29 0.13 0.13 0.11 0.10 0.09 0.20 0.77 0.82 0.56 0.62 0.60 0.91 1.53 1.62 1.63 1.73 1.70 1.57 1.89 2.41 2.03 1.83 1.70 1.25 1.09 0.80 0.45 0.49 0.65 0.85 1.00 1.02 0.89 0.73 0.65 0.66 0.72 0.69 0.68
0.33 0.20 0.22 0.26 0.29 0.62 0.68 0.39 0.51 0.53 0.27 0.19 0.16 0.06 0.04 0.08 0.47 1.46 1.13 1.04 0.99 0.81 1.03 1.79 2.10 2.08 2.41 2.20 2.08 1.79 1.90 1.39 1.02 0.96 1.09 1.29 1.17 1.01 0.81 0.88 1.04 1.01 0.87 0.87 0.94 1.00 0.92 0.76 0.79
0.36 0.29 0.30 0.35 0.58 0.58 0.66 0.50 0.33 0.55 0.38 0.29 0.27 0.14 0.07 0.05 0.15 1.03 1.41 1.54 1.05 0.83 1.14 1.18 1.74 2.19 2.13 2.37 2.23 2.25 1.82 1.53 1.22 1.27 1.09 1.08 1.06 1.14 1.25 1.21 1.06 0.84 0.90 0.91 0.83 0.80 0.92 0.96 1.21
0.42 0.31 0.26 0.56 0.51 0.56 0.63 0.61 0.25 0.22 0.24 0.25 0.27 0.38 0.16 0.10 0.06 0.31 0.94 1.38 1.36 1.06 1.10 1.41 1.61 1.92 1.96 2.24 2.68 2.68 2.54 2.13 1.79 1.34 1.22 1.32 1.27 1.47 1.55 1.54 1.62 1.54 1.29 0.99 0.94 0.84 0.82 0.93 1.05
0.42 0.27 0.36 0.55 0.77 0.60 0.46 0.56 0.14 0.09 0.16 0.21 0.14 0.33 0.33 0.18 0.15 0.24 0.46 0.93 0.97 1.00 0.97 1.09 1.65 2.32 2.63 2.41 2.43 2.60 2.80 2.67 2.35 2.51 2.30 1.99 1.87 1.98 2.36 2.56 2.47 2.29 1.91 1.80 1.86 1.83 1.65 1.68 1.43
0.38 0.31 0.36 0.47 0.68 0.63 0.28 0.47 0.11 0.09 0.10 0.10 0.11 0.12 0.39 0.44 0.45 0.40 0.35 0.47 0.68 0.79 0.91 0.88 1.18 1.73 2.93 3.39 3.45 3.37 2.87 2.80 2.55 2.42 2.62 2.34 2.30 2.15 2.10 2.43 2.95 3.03 3.15 2.76 2.39 2.38 2.35 2.28 2.30
0.90 0.76 0.67 0.48 0.62 0.90 0.42 0.34 0.14 0.12 0.13 0.19 0.31 0.16 0.32 0.66 0.78 0.79 0.71 0.67 0.41 0.56 0.69 0.74 0.83 1.26 1.92 3.39 4.54 4.33 3.87 3.16 2.92 3.01 2.86 3.05 2.50 2.21 2.03 2.49 2.78 3.08 2.80 2.59 2.72 2.64 2.38 2.23 1.94
0.89 0.96 1.26 1.14 1.12 0.49 0.30 0.55 0.26 0.02 0.05 0.15 0.35 0.11 0.17 0.53 0.59 0.87 0.70 0.43 0.37 0.37 0.47 0.50 0.60 0.75 1.20 1.81 2.78 3.35 3.54 2.66 2.24 2.08 2.34 2.43 2.37 2.05 2.08 1.66 2.02 2.24 2.43 2.65 2.35 2.21 2.09 2.09 2.26
0.33 0.46 1.42 1.21 0.82 0.44 0.52 0.71 0.35 0.05 0.03 0.12 0.28 0.12 0.10 0.38 0.47 0.66 0.58 0.45 0.44 0.56 0.47 0.47 0.50 0.57 0.68 1.31 2.00 2.30 2.44 2.24 1.87 1.71 1.61 1.51 1.45 1.42 1.44 1.51 1.37 1.38 1.54 1.78 1.88 1.73 1.57 1.50 1.53
0.52 0.46 0.33 0.73 0.52 0.77 0.54 0.57 0.55 0.28 0.05 0.19 0.26 0.22 0.20 0.29 0.53 0.69 0.75 0.68 0.37 0.45 0.49 0.41 0.39 0.40 0.46 0.69 1.08 1.48 1.48 1.58 1.33 1.32 1.24 1.11 1.12 1.16 1.22 1.33 1.41 1.40 1.46 1.54 1.58 1.53 1.38 1.30 1.12
0.26 0.18 0.29 0.73 0.78 0.60 0.31 0.25 0.64 0.52 0.50 0.47 0.36 0.33 0.33 0.48 0.84 0.99 1.25 1.12 0.53 0.44 0.51 0.51 0.45 0.39 0.44 0.56 0.60 0.68 0.95 1.15 1.22 1.17 1.07 0.98 1.09 1.07 1.45 1.33 1.06 1.08 1.15 1.37 1.71 1.68 1.50 1.42 1.37
0.13 0.20 0.19 0.28 0.26 0.46 0.30 0.39 0.67 0.59 0.67 0.58 0.47 0.66 0.78 0.97 1.12 1.09 1.20 1.21 0.78 0.52 0.61 0.58 0.59 0.55 0.52 0.48 0.47 0.47 0.50 0.85 1.11 1.07 1.16 0.95 0.90 1.09 1.18 1.36 1.45 1.31 1.17 1.14 1.23 1.21 1.28 1.54 1.61
0.07 0.03 0.12 0.42 0.26 0.41 0.56 0.44 0.39 0.44 0.51 0.61 0.62 0.78 0.88 1.05 1.13 1.22 1.23 1.32 1.12 0.79 0.69 0.59 0.49 0.57 0.50 0.50 0.46 0.66 0.42 0.45 0.71 0.96 0.94 0.75 0.56 0.55 0.63 0.55 0.58 0.58 0.77 0.87 0.82 0.86 0.96 1.06 1.10